Weather Roundup
Issued by NWS Chicago, IL

Current Version | Previous Version | Text Only | Print | Product List | Glossary On
Versions: 1 2 3 4 5 6 7 8 9 10 11 12 13 14 15 16 17 18 19 20 21 22 23 24 25 26 27 28 29 30 31 32 33 34 35 36 37 38 39 40 41 42 43 44 45 46 47 48 49 50
000
NZUS59 KLOT 271658
HRRLOT

CHICAGO AREA WEATHER ROUNDUP
NATIONAL WEATHER SERVICE CHICAGO/ROMEOVILLE IL
1100 AM CST FRI FEB 27 2015

NOTE: "FAIR" INDICATES FEW OR NO CLOUDS BELOW 12,000 FEET WITH NO
SIGNIFICANT WEATHER AND/OR OBSTRUCTIONS TO VISIBILITY.

* THESE STATIONS ARE NOT UNDER NWS QUALITY CONTROL. THEY ALSO MAY NOT
  REPORT WEATHER SUCH AS PRECIPITATION OR FOG.

ILZ005-006-012>014-019>023-271800-
NORTHEAST ILLINOIS

CITY           SKY/WX    TMP DP  RH WIND       PRES   REMARKS
OHARE          SUNNY     12  -5  46 W14       30.60R WCI  -3
MIDWAY         SUNNY     15  -3  44 W8        30.61R WCI   4
AURORA         SUNNY      5  -4  66 W7        30.63  WCI  -7
WAUKEGAN       NOT AVBL
DUPAGE AIRPORT SUNNY     12  -6  44 W10       30.60  WCI  -1
WHEELING       SUNNY     14  -5  42 W12       30.61  WCI   0
NORTHERLY IS     N/A     16  -3  43 W5          N/A  WCI   9
$$

WIZ051-052-058>065-066-070>072-271800-
SOUTHEAST WISCONSIN

CITY           SKY/WX    TMP DP  RH WIND       PRES   REMARKS
MILWAUKEE      SUNNY     14  -7  38 W6        30.57  WCI   5
KENOSHA*       SUNNY     10  -4  53 W10       30.58R WCI  -4
RACINE*        SUNNY     11  -5  48 W7        30.60R WCI   0
WAUKESHA       SUNNY      9  -6  52 W6        30.56R WCI  -1
$$

INZ001>003-010>013-019-020-271800-
NORTHWEST INDIANA

CITY           SKY/WX    TMP DP  RH WIND       PRES   REMARKS
GARY*          SUNNY     14  -9  34 W14       30.62R WCI  -1
MICHIGAN CITY* NOT AVBL
RENSSELAER*    NOT AVBL
$$

LMZ740>746-271800-
SOUTHERN LAKE MICHIGAN

STATION/POSITION TIME  SKY/WX   TEMP WIND        PRES    VSBY
                                AIR  DIR/SP/G
                 (UTC)          (F)  (DEG/KT/KT) (MB)    (MI)
HARRISON CRIB    1600            11  270/ 10/ 12   N/A
BURNHAM HARBOR   1600            16  280/  4/ 10   N/A
CALUMET HARBOR   1600            13  280/  6/  8 1034.9R
BURNS HARBOR     NOT AVBL
MICHIGAN CITY    1600            10  220/ 10/ 12   N/A
$$

ABBREVIATIONS USED IN REMARKS
   TC - TEMPERATURE IN CELSIUS
  WCI - WIND CHILL INDEX
   HX - HEAT INDEX
  VSB - VISIBILITY
$$



USA.gov is the U.S. government's official web portal to all federal, state and local government web resources and services.